Date,TemperatureHighF,TemperatureAvgF,TemperatureLowF,DewpointHighF,DewpointAvgF,DewpointLowF,HumidityHigh,HumidityAvg,HumidityLow,PressureMaxIn,PressureMinIn,WindSpeedMaxMPH,WindSpeedAvgMPH,GustSpeedMaxMPH,PrecipitationSumIn
2013-1-1,32.0,29.9,29.0,25.0,22.7,21.0,83,74,65,0.00,40.00,6,4,9,0.00
2013-1-2,31.0,28.9,28.0,25.0,21.6,20.0,83,74,66,0.00,40.00,9,7,12,0.00
2013-1-3,32.0,28.6,24.0,22.0,20.7,19.0,86,72,63,0.00,40.00,11,4,15,0.00
2013-1-4,31.0,27.8,25.0,25.0,22.0,20.0,86,79,70,0.00,40.00,7,4,10,0.00
2013-1-5,35.0,30.8,29.0,29.0,26.0,22.0,98,83,70,0.00,40.00,7,4,11,0.00
2013-1-6,32.0,29.2,26.0,29.0,27.3,25.0,98,92,86,0.00,40.00,5,3,7,0.06
2013-1-7,35.0,30.3,26.0,31.0,28.6,25.0,98,94,78,0.00,40.00,6,3,11,0.10
2013-1-8,51.0,39.0,30.0,41.0,34.8,28.0,99,86,63,0.00,40.00,24,7,32,0.05
2013-1-9,54.0,46.1,36.0,39.0,31.8,21.0,64,57,51,0.00,40.00,22,10,29,0.00
2013-1-10,43.0,36.2,30.0,27.0,20.8,13.0,77,54,44,0.00,40.00,17,8,24,0.00
2013-1-11,38.0,29.2,16.0,21.0,15.4,12.0,87,57,41,0.00,40.00,14,8,24,0.00
2013-1-12,34.0,22.1,12.0,22.0,14.3,8.0,93,74,42,0.00,40.00,8,4,14,0.00
2013-1-13,31.0,21.5,12.0,20.0,15.0,9.0,89,77,50,0.00,40.00,6,3,10,0.00
2013-1-14,34.0,25.7,20.0,23.0,20.7,16.0,91,82,60,0.00,40.00,6,3,8,0.00
2013-1-15,36.0,23.3,15.0,26.0,18.9,12.0,92,84,62,0.00,40.00,6,3,8,0.00
2013-1-16,32.0,24.7,13.0,26.0,20.4,10.0,93,84,73,0.00,40.00,9,4,11,0.00
2013-1-17,31.0,29.8,28.0,27.0,25.7,25.0,90,85,80,0.00,40.00,4,3,6,0.00
2013-1-18,30.0,28.6,27.0,26.0,25.1,24.0,93,87,82,0.00,40.00,4,3,7,0.00
2013-1-19,33.0,29.6,27.0,26.0,24.4,23.0,91,81,69,0.00,40.00,5,3,9,0.00
2013-1-20,31.0,27.0,17.0,27.0,23.1,15.0,94,85,75,0.00,40.00,6,4,9,0.00
2013-1-21,26.0,25.5,24.0,22.0,20.8,19.0,84,82,78,0.00,40.00,7,4,9,0.00
2013-1-22,25.0,23.9,22.0,21.0,19.0,17.0,85,81,77,0.00,40.00,8,4,10,0.00
2013-1-23,28.0,25.1,19.0,22.0,19.7,16.0,89,80,70,0.00,40.00,5,3,8,0.00
2013-1-24,33.0,24.9,13.0,27.0,20.2,10.0,91,83,70,0.00,40.00,12,6,16,0.00
2013-1-25,35.0,30.1,24.0,29.0,26.5,22.0,96,86,73,0.00,40.00,7,3,8,0.00
2013-1-26,36.0,32.6,30.0,30.0,29.2,28.0,96,88,77,0.00,40.00,7,3,8,0.00
2013-1-27,38.0,32.1,28.0,30.0,29.0,27.0,94,89,74,0.00,40.00,5,3,8,0.00
2013-1-28,36.0,29.5,24.0,32.0,27.7,23.0,96,93,80,0.00,40.00,6,3,8,0.00
2013-1-29,48.0,42.2,34.0,34.0,31.9,27.0,87,67,55,0.00,40.00,25,8,39,0.00
2013-1-30,60.0,51.1,45.0,38.0,35.3,32.0,67,55,43,0.00,40.00,21,14,35,0.00
2013-1-31,54.0,45.7,31.0,40.0,34.8,28.0,89,67,48,0.00,40.00,16,8,23,0.00
2013-2-1,54.0,38.2,26.0,38.0,31.4,25.0,95,78,47,0.00,40.00,9,4,15,0.00
2013-2-2,50.0,34.2,22.0,36.0,29.0,20.0,95,83,56,0.00,40.00,7,3,10,0.00
2013-2-3,35.0,31.1,22.0,34.0,29.7,21.0,98,95,89,0.00,40.00,6,3,7,0.00
2013-2-4,41.0,35.3,33.0,39.0,33.7,31.0,99,94,81,0.00,40.00,6,3,9,0.00
2013-2-5,52.0,39.2,27.0,38.0,32.7,26.0,99,80,52,0.00,40.00,17,5,26,0.00
2013-2-6,53.0,42.7,30.0,36.0,31.3,27.0,90,66,44,0.00,40.00,13,5,19,0.00
2013-2-7,52.0,38.3,29.0,36.0,28.8,24.0,92,72,34,0.00,40.00,10,4,16,0.00
2013-2-8,51.0,37.9,24.0,29.0,23.5,19.0,92,60,28,0.00,40.00,10,6,17,0.00
2013-2-9,47.0,33.1,19.0,33.0,25.5,17.0,95,76,48,0.00,40.00,14,5,25,0.00
2013-2-10,52.0,38.9,23.0,31.0,26.6,20.0,91,64,41,0.00,40.00,14,6,20,0.00
2013-2-11,45.0,30.5,17.0,31.0,24.7,15.0,94,80,57,0.00,40.00,5,3,11,0.00
2013-2-12,51.0,34.8,22.0,37.0,29.3,20.0,95,82,52,0.00,40.00,6,3,12,0.00
2013-2-13,53.0,46.8,37.0,36.0,30.7,26.0,85,55,39,0.00,40.00,18,11,23,0.00
2013-2-14,56.0,40.5,31.0,34.0,30.0,26.0,88,68,40,0.00,40.00,9,4,14,0.00
2013-2-15,56.0,38.1,24.0,36.0,29.6,22.0,94,75,44,0.00,40.00,9,3,11,0.00
2013-2-16,54.0,37.9,22.0,38.0,29.9,21.0,95,75,50,0.00,40.00,14,6,25,0.00
2013-2-17,54.0,43.0,27.0,30.0,24.2,18.0,77,50,25,0.00,40.00,17,10,23,0.00
2013-2-18,46.0,33.7,23.0,29.0,24.8,18.0,90,72,48,0.00,40.00,10,4,16,0.00
2013-2-19,49.0,37.2,25.0,32.0,26.9,22.0,90,69,39,0.00,40.00,10,5,17,0.00
2013-2-20,49.0,35.2,22.0,33.0,25.6,18.0,89,70,43,0.00,40.00,8,4,14,0.00
2013-2-21,53.0,33.0,19.0,34.0,25.0,16.0,92,75,41,0.00,40.00,11,4,17,0.00
2013-2-22,51.0,42.1,32.0,35.0,30.1,22.0,84,64,45,0.00,40.00,20,10,39,0.01
2013-2-23,54.0,42.4,22.0,28.0,23.4,18.0,84,49,27,0.00,40.00,28,13,41,0.00
2013-2-24,49.0,37.1,20.0,27.0,25.3,18.0,90,64,40,0.00,40.00,9,4,14,0.00
2013-2-25,54.0,42.1,28.0,34.0,25.0,13.0,93,56,20,0.00,40.00,23,10,34,0.00
2013-2-26,52.0,40.5,28.0,26.0,23.0,20.0,76,52,28,0.00,40.00,15,8,20,0.00
2013-2-27,56.0,38.2,21.0,33.0,26.4,17.0,89,65,37,0.00,40.00,7,4,11,0.00
2013-2-28,50.0,42.5,35.0,43.0,38.9,32.0,99,87,67,0.00,40.00,5,2,7,0.13
2013-3-1,62.0,49.7,35.0,49.0,42.0,35.0,100,78,50,0.00,40.00,10,3,15,0.01
2013-3-2,55.0,46.8,38.0,47.0,40.2,30.0,97,79,52,0.00,40.00,16,5,25,0.00
2013-3-3,54.0,44.0,34.0,30.0,22.0,17.0,68,44,24,0.00,40.00,21,15,36,0.00
2013-3-4,52.0,38.8,24.0,27.0,22.1,19.0,82,53,29,0.00,40.00,10,5,16,0.00
2013-3-5,46.0,39.4,30.0,37.0,27.6,22.0,92,64,46,0.00,40.00,11,6,17,0.02
2013-3-6,43.0,39.2,37.0,38.0,36.7,35.0,98,91,82,0.00,40.00,10,5,14,0.31
2013-3-7,58.0,43.6,33.0,38.0,33.7,28.0,98,73,34,0.00,40.00,7,3,13,0.10
2013-3-8,57.0,42.0,32.0,38.0,33.4,29.0,93,75,40,0.00,40.00,8,5,11,0.00
2013-3-9,59.0,42.6,25.0,36.0,30.4,23.0,94,66,33,0.00,40.00,10,4,15,0.00
2013-3-10,56.0,45.8,26.0,36.0,32.0,24.0,93,60,45,0.00,40.00,13,5,21,0.00
2013-3-11,58.0,49.2,41.0,36.0,30.9,21.0,76,52,24,0.00,40.00,14,5,23,0.00
2013-3-12,64.0,49.8,36.0,45.0,38.6,31.0,93,68,43,0.00,40.00,14,4,19,0.00
2013-3-13,64.0,52.5,40.0,46.0,43.1,39.0,95,73,49,0.00,40.00,6,3,10,0.00
2013-3-14,68.0,54.1,45.0,47.0,40.9,22.0,93,66,21,0.00,40.00,20,6,30,0.00
2013-3-15,68.0,53.4,36.0,42.0,37.8,33.0,94,59,29,0.00,40.00,14,7,19,0.00
2013-3-16,58.0,46.6,35.0,40.0,35.4,27.0,95,68,37,0.00,40.00,20,7,33,0.03
2013-3-17,53.0,43.5,32.0,28.0,23.9,20.0,75,48,27,0.00,40.00,20,12,30,0.03
2013-3-18,57.0,43.0,25.0,28.0,23.1,18.0,84,49,23,0.00,40.00,30,13,40,0.00
2013-3-19,53.0,40.6,22.0,39.0,24.6,19.0,89,57,27,0.00,40.00,14,6,20,0.01
2013-3-20,60.0,45.9,33.0,45.0,35.9,25.0,100,74,28,0.00,40.00,27,9,39,0.07
2013-3-21,52.0,40.1,23.0,31.0,24.8,19.0,83,57,33,0.00,40.00,19,8,34,0.00
2013-3-22,51.0,41.6,32.0,27.0,20.5,16.0,63,44,25,0.00,40.00,20,13,31,0.00
2013-3-23,51.0,37.5,24.0,24.0,20.2,16.0,86,54,24,0.00,40.00,8,4,12,0.00
2013-3-24,54.0,36.8,20.0,25.0,20.4,16.0,85,56,28,0.00,40.00,8,4,15,0.00
2013-3-25,58.0,42.7,24.0,34.0,23.3,19.0,82,50,26,0.00,40.00,6,4,14,0.00
2013-3-26,63.0,50.0,37.0,39.0,28.9,25.0,70,46,28,0.00,40.00,9,4,10,0.00
2013-3-27,63.0,50.5,42.0,42.0,37.6,35.0,82,63,38,0.00,40.00,6,3,11,0.00
2013-3-28,65.0,58.7,47.0,42.0,41.4,39.0,81,54,42,0.00,40.00,6,4,12,0.02
2013-3-29,69.0,55.1,43.0,41.0,38.5,36.0,84,57,31,0.00,40.00,8,5,13,0.00
2013-3-30,72.0,53.8,33.0,42.0,35.4,-99.9,95,59,24,0.00,40.00,6,3,12,0.00
2013-3-31,74.0,56.0,35.0,44.0,36.8,33.0,92,55,24,0.00,40.00,7,4,13,0.00
2013-4-1,79.0,62.2,36.0,42.0,37.9,33.0,88,45,23,0.00,40.00,17,6,26,0.00
2013-4-2,75.0,63.3,53.0,43.0,40.3,38.0,62,44,27,0.00,40.00,20,12,28,0.00
2013-4-3,71.0,58.1,42.0,41.0,37.2,33.0,78,48,27,0.00,40.00,20,6,28,0.00
2013-4-4,59.0,53.0,45.0,51.0,45.6,40.0,95,77,61,0.00,40.00,11,4,25,0.03
2013-4-5,69.0,58.6,53.0,45.0,41.2,38.0,71,54,34,0.00,40.00,21,13,31,0.01
2013-4-6,64.0,55.6,48.0,44.0,36.7,32.0,85,52,30,0.00,40.00,23,12,31,0.00
2013-4-7,62.0,51.5,45.0,46.0,37.6,30.0,98,62,30,0.00,40.00,19,10,38,0.16
2013-4-8,59.0,50.2,41.0,43.0,35.0,31.0,87,57,39,0.00,40.00,12,6,20,0.01
2013-4-9,66.0,50.7,31.0,41.0,36.1,30.0,95,61,31,0.00,40.00,8,5,19,0.00
2013-4-10,70.0,55.2,43.0,45.0,38.6,31.0,89,57,30,0.00,40.00,27,14,42,0.00
2013-4-11,64.0,52.6,44.0,33.0,30.2,26.0,60,44,24,0.00,40.00,20,16,32,0.00
2013-4-12,61.0,45.5,26.0,43.0,32.1,24.0,92,63,31,0.00,40.00,14,6,27,0.00
2013-4-13,59.0,47.1,31.0,34.0,25.5,20.0,95,48,22,0.00,40.00,25,14,38,0.00
2013-4-14,56.0,45.8,34.0,34.0,28.5,25.0,77,53,31,0.00,40.00,15,7,23,0.00
2013-4-15,56.0,46.6,36.0,35.0,30.0,24.0,86,55,30,0.00,40.00,17,9,26,0.00
2013-4-16,57.0,46.1,32.0,30.0,18.4,11.0,70,36,17,0.00,40.00,15,10,29,0.00
2013-4-17,62.0,46.9,30.0,31.0,23.0,17.0,78,43,18,0.00,40.00,14,6,20,0.00
2013-4-18,67.0,54.9,43.0,48.0,35.4,31.0,82,50,32,0.00,40.00,13,8,19,0.00
2013-4-19,71.0,56.5,47.0,48.0,42.3,38.0,94,62,33,0.00,40.00,22,9,33,0.01
2013-4-20,68.0,57.4,48.0,39.0,35.3,33.0,65,45,28,0.00,40.00,23,16,34,0.01
2013-4-21,66.0,54.4,45.0,35.0,32.1,28.0,59,44,25,0.00,40.00,21,11,34,0.00
2013-4-22,63.0,50.8,34.0,31.0,23.7,17.0,76,38,17,0.00,40.00,17,7,29,0.00
2013-4-23,66.0,48.1,24.0,34.0,23.3,18.0,84,44,18,0.00,40.00,8,4,15,0.00
2013-4-24,74.0,57.0,38.0,38.0,27.9,24.0,68,38,17,0.00,40.00,9,5,18,0.00
2013-4-25,82.0,64.5,46.0,39.0,32.0,22.0,50,31,18,0.00,40.00,19,8,27,0.00
2013-4-26,87.0,69.2,44.0,41.0,35.2,27.0,74,33,12,0.00,40.00,15,7,21,0.00
2013-4-27,80.0,63.2,52.0,41.0,35.5,27.0,65,38,14,0.00,40.00,22,9,31,0.00
2013-4-28,73.0,58.1,44.0,41.0,35.8,27.0,75,47,19,0.00,40.00,20,10,27,0.00
2013-4-29,60.0,52.2,38.0,37.0,29.7,23.0,86,46,24,0.00,40.00,25,15,39,0.00
2013-4-30,60.0,50.8,41.0,29.0,23.6,18.0,59,37,19,0.00,40.00,21,13,29,0.00
2013-5-1,67.0,51.4,35.0,27.0,22.2,17.0,67,37,15,0.00,40.00,11,6,17,0.00
2013-5-2,76.0,56.8,31.0,43.0,25.2,22.0,76,37,14,0.00,40.00,8,5,16,0.00
2013-5-3,80.0,68.2,53.0,42.0,35.1,30.0,63,32,17,0.00,40.00,15,11,32,0.00
2013-5-4,81.0,68.1,47.0,39.0,33.2,26.0,75,31,14,0.00,40.00,20,12,32,0.00
2013-5-5,85.0,70.5,45.0,47.0,34.8,31.0,66,30,15,0.00,40.00,16,9,23,0.00
2013-5-6,90.0,72.1,52.0,48.0,35.1,25.0,65,31,10,0.00,40.00,12,5,15,0.00
2013-5-7,92.0,74.2,47.0,47.0,37.5,25.0,73,33,9,0.00,40.00,12,6,16,0.00
2013-5-8,94.0,75.9,49.0,50.0,45.0,38.0,79,39,14,0.00,40.00,11,6,17,0.00
2013-5-9,95.0,77.6,58.0,51.0,42.4,36.0,66,33,13,0.00,40.00,12,6,18,0.00
2013-5-10,98.0,77.8,56.0,51.0,38.4,-99.9,68,31,10,0.00,40.00,12,7,20,0.00
2013-5-11,96.0,79.0,65.0,55.0,42.7,-99.9,59,31,16,0.00,40.00,11,6,16,0.00
2013-5-12,85.0,74.4,60.0,57.0,52.0,49.0,67,47,34,0.00,40.00,12,8,18,0.00
2013-5-13,75.0,63.3,47.0,53.0,45.4,37.0,84,55,25,0.00,40.00,28,9,40,0.00
2013-5-14,73.0,60.0,47.0,37.0,28.8,17.0,67,35,12,0.00,40.00,14,7,29,0.00
2013-5-15,69.0,59.0,46.0,45.0,36.7,32.0,73,46,25,0.00,40.00,10,5,14,0.00
2013-5-16,77.0,60.3,48.0,46.0,29.4,-99.9,83,47,24,0.00,40.00,12,6,18,0.00
2013-5-17,74.0,63.6,54.0,49.0,42.6,-99.9,74,51,36,0.00,40.00,14,8,21,0.00
2013-5-18,71.0,62.1,52.0,41.0,38.3,35.0,64,43,28,0.00,40.00,19,12,27,0.00
2013-5-19,79.0,64.7,54.0,41.0,38.7,36.0,58,41,22,0.00,40.00,15,10,26,0.00
2013-5-20,81.0,64.8,41.0,42.0,39.5,37.0,84,44,21,0.00,40.00,11,6,22,0.00
2013-5-21,66.0,56.1,48.0,52.0,46.2,41.0,91,71,43,0.00,40.00,16,6,21,0.36
2013-5-22,57.0,49.7,43.0,43.0,39.1,37.0,87,68,48,0.00,40.00,17,9,28,0.23
2013-5-23,66.0,54.1,39.0,42.0,38.3,34.0,97,60,31,0.00,40.00,11,4,19,0.00
2013-5-24,66.0,55.0,48.0,46.0,42.6,40.0,88,65,41,0.00,40.00,14,7,19,0.09
2013-5-25,72.0,58.7,43.0,47.0,40.7,34.0,91,56,26,0.00,40.00,11,5,22,0.01
2013-5-26,74.0,61.8,48.0,49.0,45.1,41.0,88,58,34,0.00,40.00,9,5,15,0.00
2013-5-27,65.0,55.9,41.0,53.0,47.4,40.0,95,75,44,0.00,40.00,12,5,18,0.03
2013-5-28,75.0,62.0,51.0,53.0,46.4,38.0,99,63,27,0.00,40.00,14,6,22,0.01
2013-5-29,65.0,54.2,45.0,54.0,48.1,42.0,94,81,53,0.00,40.00,10,5,15,0.39
2013-5-30,70.0,59.5,50.0,43.0,40.0,36.0,77,51,30,0.00,40.00,15,11,23,0.08
2013-5-31,75.0,62.0,47.0,44.0,39.2,35.0,76,47,23,0.00,40.00,14,6,29,0.00
2013-6-1,81.0,64.1,47.0,47.0,42.2,37.0,87,51,21,0.00,40.00,10,4,14,0.00
2013-6-2,77.0,67.7,58.0,45.0,41.9,37.0,62,41,24,0.00,40.00,16,11,22,0.00
2013-6-3,83.0,69.4,55.0,47.0,40.9,36.0,64,39,19,0.00,40.00,13,6,17,0.00
2013-6-4,85.0,71.7,55.0,51.0,45.9,40.0,72,43,21,0.00,40.00,9,6,15,0.00
2013-6-5,94.0,74.1,52.0,53.0,47.2,42.0,85,45,17,0.00,40.00,10,6,16,0.00
2013-6-6,94.0,80.2,66.0,51.0,46.2,38.0,57,33,17,0.00,40.00,15,8,19,0.00
2013-6-7,89.0,77.0,65.0,51.0,44.5,35.0,48,32,21,0.00,40.00,22,15,36,0.00
2013-6-8,91.0,73.9,56.0,46.0,41.7,33.0,62,35,14,0.00,40.00,22,11,30,0.00
2013-6-9,84.0,71.0,58.0,45.0,37.0,19.0,58,33,9,0.00,40.00,17,11,26,0.00
2013-6-10,83.0,70.8,55.0,43.0,37.0,33.0,57,32,17,0.00,40.00,16,8,28,0.00
2013-6-11,75.0,64.9,56.0,42.0,37.6,33.0,59,38,22,0.00,40.00,20,13,29,0.00
2013-6-12,76.0,63.7,49.0,41.0,36.7,32.0,73,40,20,0.00,40.00,19,10,27,0.00
2013-6-13,75.0,62.9,52.0,42.0,38.9,35.0,63,43,23,0.00,40.00,19,10,30,0.00
2013-6-14,79.0,67.2,56.0,42.0,39.2,36.0,59,39,21,0.00,40.00,16,10,23,0.00
2013-6-15,86.0,69.9,47.0,52.0,42.0,38.0,85,42,18,0.00,40.00,11,5,16,0.00
2013-6-16,92.0,77.3,62.0,51.0,43.4,39.0,48,33,17,0.00,40.00,23,8,33,0.00
2013-6-17,89.0,75.0,63.0,60.0,49.2,39.0,85,45,18,0.00,40.00,23,8,33,0.19
2013-6-18,63.0,59.1,57.0,60.0,56.7,55.0,97,92,84,0.00,40.00,8,4,18,1.03
2013-6-19,74.0,64.1,55.0,56.0,46.5,42.0,97,56,34,0.00,40.00,24,12,34,0.02
2013-6-20,62.0,58.3,55.0,53.0,46.9,43.0,82,66,50,0.00,40.00,22,13,34,0.16
2013-6-22,80.0,72.3,58.0,54.0,48.4,44.0,82,46,28,0.00,40.00,8,5,16,0.00
2013-6-23,76.0,67.8,55.0,61.0,51.7,46.0,94,61,35,0.00,40.00,8,5,12,0.08
2013-6-24,73.0,65.4,57.0,61.0,54.7,45.0,98,73,41,0.00,40.00,11,5,19,0.09
2013-6-25,77.0,62.4,54.0,58.0,53.8,49.0,98,76,37,0.00,40.00,10,5,18,0.31
2013-6-26,78.0,67.0,55.0,58.0,53.2,49.0,92,63,42,0.00,40.00,13,5,18,0.01
2013-6-27,84.0,70.5,58.0,60.0,57.0,52.0,96,66,37,0.00,40.00,10,5,15,0.00
2013-6-28,94.0,79.3,63.0,64.0,58.6,57.0,81,53,30,0.00,40.00,9,6,15,0.00
2013-6-29,92.0,79.2,71.0,65.0,62.0,59.0,73,57,33,0.00,40.00,10,7,16,0.04
2013-6-30,97.0,83.0,65.0,65.0,60.2,53.0,92,51,23,0.00,40.00,10,5,15,0.02
2013-7-1,105.0,88.4,70.0,64.0,58.7,55.0,72,40,21,0.00,40.00,11,7,16,0.00
2013-7-2,108.0,91.4,78.0,62.0,56.7,48.0,57,34,14,0.00,40.00,20,9,27,0.00
2013-7-3,98.0,83.0,73.0,50.0,43.1,33.0,41,27,11,0.00,40.00,16,10,27,0.00
2013-7-4,92.0,78.5,63.0,49.0,42.3,36.0,53,30,16,0.00,40.00,23,14,34,0.00
2013-7-5,87.0,74.3,59.0,48.0,44.0,37.0,61,36,21,0.00,40.00,21,9,30,0.00
2013-7-6,91.0,71.4,54.0,53.0,47.7,41.0,82,48,18,0.00,40.00,12,5,18,0.00
2013-7-7,95.0,81.6,66.0,54.0,47.5,42.0,60,34,16,0.00,40.00,12,7,19,0.00
2013-7-8,93.0,76.6,65.0,54.0,50.9,42.0,64,43,17,0.00,40.00,10,7,19,0.00
2013-7-9,98.0,82.1,62.0,56.0,48.7,39.0,70,37,13,0.00,40.00,10,6,18,0.00
2013-7-10,98.0,82.9,67.0,55.0,43.9,-99.9,59,29,13,0.00,40.00,19,8,25,0.00
2013-7-11,89.0,74.8,65.0,48.0,37.3,25.0,52,30,10,0.00,40.00,21,14,32,0.00
2013-7-12,85.0,71.3,58.0,42.0,36.5,29.0,54,31,14,0.00,40.00,18,10,31,0.00
2013-7-13,86.0,71.3,55.0,45.0,38.9,31.0,62,35,14,0.00,40.00,13,6,22,0.00
2013-7-14,94.0,75.1,50.0,49.0,40.2,27.0,79,36,9,0.00,40.00,11,6,17,0.00
2013-7-15,89.0,76.5,65.0,45.0,39.4,34.0,48,28,14,0.00,40.00,15,10,23,0.00
2013-7-16,97.0,88.0,76.0,49.0,43.6,38.0,37,22,14,0.00,40.00,14,9,23,0.00
2013-7-17,98.0,84.2,71.0,57.0,50.2,41.0,57,34,15,0.00,40.00,16,8,23,0.00
2013-7-18,97.0,83.9,67.0,56.0,49.4,42.0,42,32,18,0.00,40.00,14,6,23,0.00
2013-7-19,102.0,84.7,66.0,55.0,44.9,32.0,58,29,9,0.00,40.00,11,6,17,0.00
2013-7-20,103.0,83.2,66.0,51.0,41.0,26.0,59,28,7,0.00,40.00,18,8,26,0.00
2013-7-21,102.0,84.1,61.0,48.0,41.3,36.0,60,25,11,0.00,40.00,20,8,31,0.00
2013-7-22,102.0,84.4,65.0,52.0,45.6,38.0,60,30,11,0.00,40.00,20,8,31,0.00
2013-7-23,102.0,83.8,66.0,52.0,46.2,35.0,58,32,10,0.00,40.00,11,6,17,0.00
2013-7-24,103.0,85.8,66.0,52.0,43.7,33.0,61,28,9,0.00,40.00,11,6,17,0.00
2013-7-25,104.0,84.2,60.0,51.0,42.9,28.0,68,29,7,0.00,40.00,12,6,17,0.00
2013-7-26,102.0,81.2,64.0,46.0,38.8,25.0,50,26,7,0.00,40.00,22,8,33,0.00
2013-7-27,95.0,81.7,67.0,44.0,39.4,31.0,42,24,11,0.00,40.00,22,10,33,0.00
2013-7-28,92.0,76.0,59.0,46.0,41.9,36.0,63,32,14,0.00,40.00,13,7,21,0.00
2013-7-29,92.0,77.8,63.0,55.0,46.3,38.0,61,36,16,0.00,40.00,12,6,20,0.00
2013-7-30,95.0,80.6,63.0,56.0,45.1,38.0,61,32,15,0.00,40.00,10,6,15,0.00
2013-7-31,91.0,79.1,62.0,58.0,50.4,46.0,68,39,23,0.00,40.00,11,6,19,0.00
2013-8-1,83.0,75.5,65.0,59.0,51.6,47.0,69,44,31,0.00,40.00,17,8,27,0.07
2013-8-2,74.0,67.0,60.0,61.0,57.0,53.0,96,71,54,0.00,40.00,7,5,13,0.13
2013-8-3,85.0,71.8,58.0,62.0,58.1,53.0,98,67,33,0.00,40.00,8,4,14,0.01
2013-8-4,93.0,76.9,58.0,61.0,56.3,51.0,95,56,25,0.00,40.00,9,4,18,0.00
2013-8-5,97.0,81.3,65.0,60.0,55.4,50.0,77,46,22,0.00,40.00,8,5,15,0.00
2013-8-6,99.0,82.8,64.0,55.0,49.1,43.0,68,35,16,0.00,40.00,9,6,16,0.00
2013-8-7,99.0,82.4,62.0,49.0,41.8,33.0,58,28,10,0.00,40.00,12,6,20,0.00
2013-8-8,97.0,81.3,63.0,56.0,44.7,36.0,58,31,12,0.00,40.00,12,6,20,0.00
2013-8-9,98.0,82.7,63.0,64.0,55.1,50.0,75,42,20,0.00,40.00,27,8,42,0.00
2013-8-10,96.0,83.7,65.0,59.0,55.0,51.0,74,40,23,0.00,40.00,17,7,37,0.00
2013-8-11,92.0,79.6,67.0,58.0,54.0,43.0,68,44,20,0.00,40.00,10,6,19,0.00
2013-8-12,93.0,77.8,57.0,56.0,51.2,45.0,87,45,19,0.00,40.00,14,6,19,0.00
2013-8-13,96.0,78.5,58.0,57.0,51.7,43.0,84,46,17,0.00,40.00,10,6,22,0.00
2013-8-14,98.0,78.1,58.0,55.0,49.8,37.0,79,45,12,0.00,40.00,16,5,23,0.00
2013-8-15,94.0,75.1,68.0,59.0,42.5,-99.9,63,40,22,0.00,40.00,16,8,23,0.00
2013-8-16,94.0,78.4,66.0,59.0,53.3,-99.9,77,46,22,0.00,40.00,10,6,20,0.00
2013-8-17,91.0,76.9,62.0,59.0,53.4,-99.9,84,49,23,0.00,40.00,12,7,22,0.00
2013-8-18,95.0,78.5,63.0,61.0,49.2,43.0,65,39,17,0.00,40.00,15,6,20,0.00
2013-8-19,91.0,75.1,64.0,53.0,44.4,-99.9,64,40,24,0.00,40.00,18,11,30,0.00
2013-8-20,89.0,74.3,62.0,54.0,45.9,-99.9,69,41,21,0.00,40.00,17,7,30,0.00
2013-8-21,92.0,75.6,59.0,56.0,45.8,41.0,68,39,17,0.00,40.00,12,6,15,0.00
2013-8-22,91.0,76.5,60.0,62.0,47.2,37.0,71,40,15,0.00,40.00,6,4,10,0.00
2013-8-23,90.0,75.9,63.0,56.0,52.1,47.0,69,46,25,0.00,40.00,12,5,19,0.00
2013-8-24,89.0,72.9,58.0,54.0,48.8,-99.9,80,47,20,0.00,40.00,15,7,19,0.00
2013-8-25,86.0,71.6,59.0,62.0,50.7,45.0,95,52,26,0.00,40.00,11,6,35,0.08
2013-8-26,83.0,67.8,53.0,60.0,55.2,49.0,99,69,34,0.00,40.00,8,4,14,0.08
2013-8-27,84.0,63.6,52.0,54.0,51.8,49.0,93,70,32,0.00,40.00,6,3,12,0.00
2013-8-28,92.0,84.5,69.0,60.0,53.5,50.0,72,36,24,0.00,40.00,8,5,16,0.00
2013-8-29,90.0,78.6,67.0,60.0,55.3,50.0,73,47,26,0.00,40.00,18,8,26,0.00
2013-8-30,87.0,77.2,57.0,55.0,51.0,45.0,84,43,23,0.00,40.00,10,5,15,0.00
2013-8-31,90.0,73.3,58.0,54.0,48.7,-99.9,74,46,22,0.00,40.00,8,6,13,0.00
2013-9-1,95.0,78.1,61.0,59.0,48.4,42.0,66,39,16,0.00,40.00,7,5,11,0.00
2013-9-2,91.0,77.5,60.0,58.0,54.1,51.0,78,48,28,0.00,40.00,15,8,21,0.00
2013-9-3,94.0,77.9,64.0,59.0,54.2,41.0,81,49,16,0.00,40.00,11,6,23,0.00
2013-9-4,93.0,78.6,62.0,59.0,54.4,48.0,77,47,22,0.00,40.00,9,6,20,0.00
2013-9-5,86.0,74.5,63.0,64.0,59.4,56.0,94,62,42,0.00,40.00,15,6,30,0.02
2013-9-6,71.0,62.3,54.0,60.0,57.4,53.0,98,85,66,0.00,40.00,7,4,24,0.09
2013-9-7,76.0,61.9,52.0,60.0,54.1,-99.9,99,80,49,0.00,40.00,11,4,17,0.01
2013-9-8,88.0,69.7,53.0,57.0,53.5,48.0,97,64,25,0.00,40.00,8,5,18,0.00
2013-9-9,91.0,74.6,52.0,57.0,51.8,47.0,95,52,22,0.00,40.00,8,4,17,0.00
2013-9-10,92.0,77.0,55.0,58.0,53.0,49.0,90,48,25,0.00,40.00,10,5,16,0.00
2013-9-11,96.0,81.9,68.0,56.0,50.4,46.0,51,35,22,0.00,40.00,9,6,15,0.00
2013-9-12,97.0,83.3,66.0,60.0,51.9,49.0,67,37,21,0.00,40.00,8,5,16,0.00
2013-9-13,99.0,79.0,57.0,62.0,53.1,49.0,91,49,19,0.00,40.00,6,3,14,0.00
2013-9-14,92.0,76.7,58.0,60.0,54.6,-99.9,87,50,30,0.00,40.00,8,4,12,0.00
2013-9-15,94.0,77.9,61.0,61.0,54.7,47.0,80,49,23,0.00,40.00,17,7,45,0.07
2013-9-16,79.0,68.2,60.0,61.0,55.1,49.0,98,67,35,0.00,40.00,13,5,22,0.07
2013-9-17,73.0,63.4,51.0,52.0,47.9,42.0,97,60,38,0.00,40.00,24,8,33,0.00
2013-9-18,61.0,59.0,54.0,42.0,40.7,39.0,60,51,47,0.00,40.00,19,14,28,0.00
2013-9-19,79.0,60.5,41.0,46.0,41.4,37.0,93,56,22,0.00,40.00,7,4,16,0.00
2013-9-20,79.0,65.2,48.0,48.0,43.0,41.0,81,47,27,0.00,40.00,12,6,16,0.00
2013-9-21,79.0,67.8,54.0,52.0,43.6,-99.9,79,45,25,0.00,40.00,14,7,19,0.00
2013-9-22,71.0,58.2,44.0,52.0,46.3,40.0,93,67,33,0.00,40.00,19,6,27,0.08
2013-9-23,69.0,60.6,47.0,50.0,45.8,44.0,88,60,41,0.00,40.00,16,9,28,0.06
2013-9-24,68.0,57.7,47.0,46.0,39.3,33.0,78,54,28,0.00,40.00,13,7,18,0.00
2013-9-25,72.0,56.7,41.0,43.0,38.1,27.0,95,56,19,0.00,40.00,13,7,23,0.00
2013-9-26,69.0,59.5,50.0,44.0,40.8,36.0,71,51,31,0.00,40.00,15,10,21,0.00
2013-9-27,63.0,53.0,43.0,48.0,41.7,34.0,90,67,44,0.00,40.00,13,6,21,0.00
2013-9-28,72.0,59.7,48.0,54.0,48.5,-99.9,100,72,41,0.00,40.00,21,9,37,0.02
2013-9-29,65.0,58.2,51.0,48.0,42.3,40.0,72,56,41,0.00,40.00,19,12,31,0.01
2013-9-30,67.0,58.9,52.0,48.0,39.3,35.0,75,49,35,0.00,40.00,21,14,34,0.00
2013-10-1,63.0,52.5,44.0,39.0,37.1,34.0,77,58,34,0.00,40.00,9,7,14,0.00
2013-10-2,56.0,46.8,34.0,43.0,37.6,32.0,95,72,51,0.00,40.00,11,4,21,0.02
2013-10-3,67.0,52.7,41.0,44.0,38.9,33.0,94,64,29,0.00,40.00,12,8,21,0.03
2013-10-4,68.0,51.1,31.0,41.0,36.3,30.0,96,62,29,0.00,40.00,9,5,16,0.00
2013-10-5,69.0,49.5,33.0,40.0,36.2,32.0,96,66,30,0.00,40.00,6,3,11,0.00
2013-10-6,72.0,52.4,33.0,44.0,38.2,32.0,96,65,27,0.00,40.00,5,3,10,0.00
2013-10-7,72.0,58.9,44.0,43.0,37.7,34.0,78,48,27,0.00,40.00,19,10,29,0.00
2013-10-8,63.0,51.3,41.0,43.0,37.8,32.0,90,63,32,0.00,40.00,14,5,22,0.00
2013-10-9,63.0,50.1,35.0,42.0,36.8,34.0,97,65,36,0.00,40.00,7,4,11,0.00
2013-10-10,68.0,55.1,38.0,42.0,36.7,31.0,97,56,25,0.00,40.00,9,4,13,0.00
2013-10-11,65.0,54.7,43.0,38.0,35.3,32.0,79,50,30,0.00,40.00,10,4,15,0.00
2013-10-12,54.0,46.4,39.0,48.0,40.8,-99.9,97,83,74,0.00,40.00,6,3,8,0.03
2013-10-13,65.0,53.1,39.0,39.0,35.4,31.0,97,55,28,0.00,40.00,10,4,14,0.01
2013-10-14,65.0,50.5,36.0,36.0,31.9,29.0,81,53,26,0.00,40.00,9,5,14,0.00
2013-10-15,64.0,46.5,27.0,36.0,31.7,26.0,95,62,26,0.00,40.00,7,3,12,0.00
2013-10-16,68.0,49.5,36.0,39.0,34.9,31.0,88,63,29,0.00,40.00,5,2,12,0.00
2013-10-17,68.0,50.2,32.0,40.0,36.4,30.0,94,63,33,0.00,40.00,6,4,11,0.00
2013-10-18,66.0,45.1,29.0,39.0,34.1,28.0,95,71,33,0.00,40.00,5,3,12,0.00
2013-10-19,65.0,45.4,29.0,42.0,35.1,-99.9,96,73,40,0.00,40.00,4,2,9,0.00
2013-10-20,71.0,48.2,31.0,42.0,36.9,30.0,97,71,30,0.00,40.00,5,3,10,0.00
2013-10-21,72.0,50.1,36.0,45.0,39.7,34.0,95,72,36,0.00,40.00,5,3,8,0.00
2013-10-22,71.0,50.8,34.0,48.0,41.5,33.0,97,75,38,0.00,40.00,5,3,10,0.00
2013-10-23,71.0,52.8,33.0,47.0,42.2,32.0,98,71,39,0.00,40.00,8,4,10,0.00
2013-10-24,71.0,52.3,34.0,46.0,42.0,33.0,98,72,38,0.00,40.00,4,2,9,0.00
2013-10-25,68.0,46.7,32.0,47.0,40.3,32.0,100,82,44,0.00,40.00,5,2,9,0.00
2013-10-26,66.0,46.7,33.0,48.0,38.6,-99.9,100,80,45,0.00,40.00,5,2,8,0.00
2013-10-27,53.0,46.8,34.0,47.0,40.9,30.0,100,82,43,0.00,40.00,23,8,38,0.03
2013-10-28,54.0,47.9,38.0,32.0,22.0,-99.9,52,38,25,0.00,40.00,26,17,43,0.01
2013-10-29,56.0,41.5,28.0,25.0,21.7,19.0,73,48,24,0.00,40.00,7,4,13,0.00
2013-10-30,54.0,36.5,22.0,31.0,25.2,18.0,88,66,36,0.00,40.00,5,3,9,0.00
2013-10-31,69.0,51.8,34.0,42.0,36.9,30.0,89,60,33,0.00,40.00,22,9,32,0.00
2013-11-1,66.0,51.8,36.0,40.0,37.8,34.0,94,61,35,0.00,40.00,16,4,23,0.00
2013-11-2,61.0,49.9,42.0,45.0,36.1,-99.9,98,65,28,0.00,40.00,29,10,46,0.13
2013-11-3,54.0,44.4,38.0,32.0,29.6,26.0,78,57,34,0.00,40.00,18,9,26,0.01
2013-11-4,53.0,41.2,30.0,30.0,23.7,17.0,79,54,25,0.00,40.00,9,4,16,0.00
2013-11-5,46.0,38.8,27.0,36.0,32.3,26.0,95,78,64,0.00,40.00,9,4,12,0.00
2013-11-6,45.0,37.7,26.0,39.0,33.7,25.0,98,86,70,0.00,40.00,7,3,10,0.09
2013-11-7,49.0,42.3,39.0,41.0,39.0,36.0,97,89,64,0.00,40.00,11,4,24,0.21
2013-11-8,56.0,47.6,39.0,39.0,37.3,34.0,90,68,51,0.00,40.00,12,7,23,0.01
2013-11-9,48.0,41.1,33.0,40.0,35.4,-99.9,97,82,68,0.00,40.00,9,5,12,0.00
2013-11-10,52.0,46.8,41.0,42.0,40.0,38.0,91,77,63,0.00,40.00,7,4,10,0.00
2013-11-11,58.0,46.4,37.0,42.0,39.2,35.0,96,78,52,0.00,40.00,8,4,12,0.00
2013-11-12,53.0,41.2,33.0,44.0,38.8,33.0,100,92,70,0.00,40.00,4,3,8,0.01
2013-11-13,49.0,38.9,31.0,45.0,37.7,31.0,100,96,65,0.00,40.00,12,3,18,0.01
2013-11-14,52.0,38.8,28.0,42.0,35.6,28.0,100,89,61,0.00,40.00,6,3,11,0.01
2013-11-15,47.0,36.1,27.0,39.0,33.1,27.0,100,91,58,0.00,40.00,16,4,24,0.00
2013-11-16,54.0,43.7,36.0,35.0,29.0,-99.9,80,59,35,0.00,40.00,18,10,27,0.00
2013-11-17,57.0,47.1,36.0,38.0,34.4,29.0,82,63,43,0.00,40.00,23,12,35,0.00
2013-11-18,57.0,51.3,42.0,44.0,40.6,38.0,85,67,52,0.00,40.00,12,7,29,0.02
2013-11-19,60.0,52.3,43.0,44.0,35.7,25.0,71,54,37,0.00,40.00,21,12,34,0.01
2013-11-20,43.0,33.9,20.0,27.0,8.4,1.0,61,36,17,0.00,40.00,13,8,23,0.00
2013-11-21,42.0,25.7,13.0,15.0,8.1,3.0,79,51,19,0.00,40.00,5,3,8,0.00
2013-11-22,41.0,24.8,9.0,20.0,13.1,6.0,87,63,32,0.00,40.00,8,4,10,0.00
2013-11-23,40.0,24.9,11.0,21.0,13.4,-99.9,92,66,39,0.00,40.00,6,3,9,0.00
2013-11-24,39.0,24.5,12.0,23.0,16.9,9.0,91,75,47,0.00,40.00,4,2,6,0.00
2013-11-25,42.0,27.0,16.0,26.0,20.4,14.0,93,78,52,0.00,40.00,4,1,6,0.00
2013-11-26,38.0,24.5,15.0,27.0,20.4,12.0,94,85,63,0.00,40.00,5,2,6,0.00
2013-11-27,41.0,27.5,19.0,31.0,23.4,17.0,94,85,66,0.00,40.00,6,2,12,0.00
2013-11-28,28.0,23.4,17.0,27.0,22.2,15.0,98,95,92,0.00,40.00,3,1,5,0.00
2013-11-29,29.0,25.7,21.0,29.0,25.0,20.0,99,97,94,0.00,40.00,2,0,4,0.00
2013-11-30,31.0,29.4,27.0,31.0,28.5,-99.9,100,99,98,0.00,40.00,1,0,3,0.00
2013-12-1,55.0,40.7,30.0,46.0,37.0,30.0,100,89,57,0.00,40.00,21,4,38,0.06
2013-12-2,53.0,41.3,33.0,39.0,23.3,12.0,71,50,28,0.00,40.00,21,13,33,0.06
2013-12-3,37.0,30.1,21.0,22.0,11.6,2.0,75,48,22,0.00,40.00,20,11,32,0.00
2013-12-4,33.0,22.8,6.0,11.0,7.8,1.0,81,54,34,0.00,40.00,12,6,18,0.00
2013-12-5,26.0,15.0,3.0,17.0,7.3,-1.0,86,72,51,0.00,40.00,5,1,8,0.00
2013-12-6,25.0,19.7,13.0,10.0,2.6,-7.0,72,49,29,0.00,40.00,18,9,31,0.00
2013-12-7,24.0,16.8,2.0,-2.0,-7.0,-99.9,57,36,22,0.00,40.00,18,9,32,0.00
2013-12-8,23.0,10.1,-2.0,2.0,-1.4,-8.0,79,61,40,0.00,40.00,4,3,8,0.00
2013-12-9,25.0,11.2,0.0,6.0,0.9,-5.0,79,64,40,0.00,40.00,9,4,13,0.00
2013-12-10,31.0,17.8,8.0,12.0,7.0,3.0,84,65,38,0.00,40.00,5,2,7,0.00
2013-12-11,31.0,19.6,5.0,16.0,11.2,0.0,89,71,51,0.00,40.00,6,2,7,0.00
2013-12-12,28.0,21.9,13.0,19.0,15.7,10.0,89,77,66,0.00,40.00,5,2,6,0.00
2013-12-13,38.0,24.9,12.0,24.0,18.4,9.0,90,77,55,0.00,40.00,5,2,9,0.00
2013-12-14,38.0,28.0,20.0,26.0,21.7,-99.9,93,79,61,0.00,40.00,4,2,14,0.00
2013-12-15,48.0,30.7,17.0,35.0,24.7,15.0,95,80,50,0.00,40.00,6,3,11,0.00
2013-12-16,51.0,32.6,23.0,34.0,27.8,22.0,99,84,51,0.00,40.00,5,3,9,0.00
2013-12-17,33.0,26.4,20.0,33.0,25.9,19.0,100,98,95,0.00,40.00,4,2,6,0.00
2013-12-18,47.0,32.1,22.0,36.0,25.6,13.0,100,80,40,0.00,40.00,14,5,31,0.00
2013-12-19,38.0,31.1,20.0,13.0,5.9,2.0,63,36,22,0.00,40.00,18,6,30,0.00
2013-12-20,32.0,25.1,16.0,28.0,20.0,10.0,95,81,62,0.00,40.00,7,3,14,0.02
2013-12-21,39.0,27.5,19.0,28.0,22.3,-99.9,94,83,64,0.00,40.00,7,3,9,0.02
2013-12-22,36.0,29.7,21.0,30.0,26.9,20.0,97,89,73,0.00,40.00,4,1,5,0.00
2013-12-23,53.0,37.1,26.0,37.0,31.4,26.0,100,82,42,0.00,40.00,22,7,45,0.02
2013-12-24,48.0,34.7,20.0,32.0,26.4,18.0,93,73,49,0.00,40.00,16,4,24,0.01
2013-12-25,37.0,25.7,17.0,31.0,23.1,16.0,97,90,73,0.00,40.00,5,2,8,0.00
2013-12-26,34.0,23.2,16.0,33.0,22.3,14.0,99,95,90,0.00,40.00,3,2,6,0.00
2013-12-27,25.0,22.0,16.0,25.0,21.1,14.0,98,95,90,0.00,40.00,4,1,7,0.00
2013-12-28,27.0,25.9,25.0,27.0,25.0,-99.9,99,98,97,0.00,40.00,4,0,6,0.00
2013-12-29,27.0,25.4,24.0,27.0,25.0,23.0,99,98,97,0.00,40.00,1,0,2,0.00
2013-12-30,31.0,27.8,22.0,31.0,27.5,21.0,100,99,95,0.00,40.00,2,0,3,0.01
2013-12-31,40.0,30.5,21.0,39.0,30.1,20.0,100,99,88,0.00,40.00,7,2,9,0.01
2014-1-1,31.0,27.2,21.0,31.0,27.2,20.0,100,100,95,0.00,40.00,4,2,6,0.01
2014-1-2,32.0,30.8,28.0,32.0,30.8,28.0,100,100,100,0.00,40.00,4,2,6,0.01